Regional Weather Roundup
Issued by NWS Green Bay, WI

Home | Current Version | Previous Version | Graphics & Text | Print | Product List | Glossary Off
Versions: 1 2 3 4 5 6 7 8 9 10 11 12 13 14 15 16 17 18 19 20 21 22 23 24 25 26 27 28 29 30 31 32 33 34 35 36 37 38 39 40 41 42 43 44 45 46 47 48 49 50

000
ASUS43 KGRB 201810
RWRGRB

NORTH-CENTRAL AND NORTHEAST WISCONSIN REGIONAL WEATHER ROUNDUP
NATIONAL WEATHER SERVICE GREEN BAY WI
100 PM CDT SAT SEP 20 2014

WIZ005-009-010>012-018-019-201900-
NORTH CENTRAL WISCONSIN

CITY           SKY/WX    TMP DP  RH WIND       PRES   REMARKS
IRONWOOD       CLOUDY    64  57  77 NW13G21   29.69R
MANITOWISH WTR CLOUDY    64  56  73 W10       29.73R
ARBOR VITAE    CLOUDY    67  57  71 NW9       29.73R
EAGLE RIVER    CLOUDY    67  54  62 W12G17    29.72R
LAND O LAKES   CLOUDY    65  55  70 NW8       29.73R
RHINELANDER    MOSUNNY   72  57  59 W16G23    29.72S
PHILLIPS       CLOUDY    68  57  67 NW6       29.73F
ANTIGO         CLOUDY    72  60  65 W17       29.70F
TOMAHAWK       PTSUNNY   71  56  59 NW15G21   29.71F
MERRILL        PTSUNNY   72  59  63 W13G22    29.71F
$$

WIZ013-073-201900-
NORTHEAST WISCONSIN

CITY           SKY/WX    TMP DP  RH WIND       PRES   REMARKS
IRON MOUNTAIN  PTSUNNY   74  56  53 NW17G24   29.65R
MARINETTE      MOSUNNY   73  63  68 W5G16     29.65R
OCONTO         CLOUDY    73  64  73 W12G21    29.68S
$$

WIZ017-030-035>037-045-201900-
CENTRAL WISCONSIN

CITY           SKY/WX    TMP DP  RH WIND       PRES   REMARKS
MEDFORD        PTSUNNY   70  58  66 W13       29.73F
WAUSAU         CLOUDY    73  59  61 W15       29.70F
MOSINEE        MOSUNNY   72  61  68 W15G24    29.74S
MARSHFIELD     CLOUDY    72  60  66 W12G21    29.74S
WISC RAPIDS    CLOUDY    71  63  75 W10       29.75S
STEVENS POINT  CLOUDY    69  61  77 W9        29.73R
WAUPACA        CLOUDY    72  65  78 SW9       29.74R
SHAWANO        NOT AVBL
CLINTONVILLE   CLOUDY    72  61  68 W10       29.70F
$$

WIZ038-039-048-051-201900-
FOX VALLEY

CITY           SKY/WX    TMP DP  RH WIND       PRES   REMARKS
NWS GREEN BAY  PTSUNNY   72  64  76 SW12      29.71S
APPLETON       CLOUDY    70  63  78 W12       29.74S
OSHKOSH        PTSUNNY   73  64  73 W9        29.74R
FOND DU LAC    PTSUNNY   73  63  70 SW10      29.74F
$$

WIZ022-050-052-201900-
EAST CENTRAL WISCONSIN

CITY           SKY/WX    TMP DP  RH WIND       PRES   REMARKS
STURGEON BAY   PTSUNNY   72  63  73 SW15G22   29.69S
MANITOWOC      PTSUNNY   73  64  73 W14G24    29.71F
SHEBOYGAN      CLOUDY    73  62  68 SW20      29.75R
$$

LMZ563-521-522-541>543-201900-
LAKESHORE

STATION/POSITION TIME  TEMP    WIND        PRES    VSBY  WAVE
                       AIR SEA DIR/SP/G                  HT/PER
                 (UTC) (F)     (DEG/KT/KT) (MB)    (MI)  (FT/S)
SHEBOYGAN LKSHOR 1800   72 53  230/ 15/ 18 1007.0R
KEWAUNEE LKSHORE 1800   72     260/  7/ 13 1005.0F
NORTHPORT PIER   1800   73     220/  6/ 15 1004.1S
N MID LAKE BUOY  1800   60 58  210/ 19/ 23 1003.3F         6/ 7
SISTER BAY LKSHO 1700          210/ 13/ 15   N/A
CHAMBERS ISLAND  1800   70     180/  5/ 12 1004.4R
MENOMINEE LKSHOR 1800   74     250/ 13/ 19 1005.1S
$$



USA.gov is the U.S. government's official web portal to all federal, state and local government web resources and services.